Weather History for YSCB - July, 2013

Change the Weather History Date:

Tuesday, July 16, 2013

  Actual Average Record
Temperature  
Mean Temperature 50 °F -  
Max Temperature 57 °F 54 °F - ()
Min Temperature 44 °F 33 °F - ()
Degree Days  
Heating Degree Days 14    
Moisture  
Dew Point 50 °F    
Average Humidity 95    
Maximum Humidity 100    
Minimum Humidity 73    
Precipitation  
Precipitation 0.12 in 0.06 in - ()
Sea Level Pressure  
Sea Level Pressure 30.22 in    
Wind  
Wind Speed 5 mph ()    
Max Wind Speed 16 mph    
Max Gust Speed -    
Visibility 4.9 miles    
Events Fog , Rain    
T = Trace of Precipitation, MM = Missing Value Source: Averaged Metar Reports

Daily Weather History Graph

Daily Weather History Graph

Search for Another Location

Airport or City:

Trip Planner

Search our weather history database for the weather conditions in past years. The results will help you decide how hot, cold, wet, or windy it might be!

Date:

Astronomy

Jul. 16, 2013 Rise Set
Actual Time 7:09 AM AEST 5:09 PM AEST
Civil Twilight 6:41 AM AEST 5:37 PM AEST
Nautical Twilight 6:10 AM AEST 6:08 PM AEST
Astronomical Twilight 5:39 AM AEST 6:39 PM AEST
Moon 11:19 AM AEST (7/16) No Moon Set
Length of Visible Light 10h 55m
Length of Day
10h 00m
Waxing Crescent, 49% of the Moon is Illuminated
Jul 16
Waxing Crescent
Jul 16
First Quarter
Jul 23
Full
Jul 30
Last Quarter
Aug 7
New

Hourly Weather History & Observations

Time (AEST) Temp. Windchill Dew Point Humidity Pressure Visibility Wind Dir Wind Speed Gust Speed Precip Events Conditions
12:00 AM 51 °F - 50 °F 97% 30.26 in - NNE 5.8 mph - -   Overcast
12:00 AM 51.8 °F - 50.0 °F 94% 30.21 in 6.2 mi NNE 5.8 mph - N/A   Overcast
12:30 AM 51.8 °F - 50.0 °F 94% 30.21 in 6.2 mi North 5.8 mph - N/A   Overcast
1:00 AM 51 °F - 50 °F 97% 30.25 in - NNE 11.2 mph - -  
1:00 AM 51.8 °F - 50.0 °F 94% 30.21 in 6.2 mi NNE 5.8 mph - N/A   Overcast
1:30 AM 51.8 °F - 50.0 °F 94% 30.21 in 6.2 mi NNE 4.6 mph - N/A   Overcast
2:00 AM 51.8 °F - 50.0 °F 94% 30.21 in 6.2 mi North 4.6 mph - N/A   Overcast
2:30 AM 51.8 °F - 50.0 °F 94% 30.18 in 6.2 mi NNE 5.8 mph - N/A   Drizzle
3:00 AM 51 °F - 50 °F 96% 30.25 in - SE 8.9 mph - -   Overcast
3:00 AM 50.0 °F - 50.0 °F 100% 30.18 in 6.2 mi SE 4.6 mph - N/A Rain Light Rain Showers
3:18 AM 50.0 °F - 50.0 °F 100% 30.18 in 3.7 mi ESE 2.3 mph - N/A Rain Rain Showers
3:30 AM 50.0 °F - 50.0 °F 100% 30.21 in - Calm Calm - N/A Rain Heavy Rain Showers
4:00 AM 51 °F - 50 °F 96% 30.24 in - North 1.2 mph - -  
4:00 AM 50.0 °F - 50.0 °F 100% 30.18 in 3.7 mi North 1.2 mph - N/A Rain Heavy Rain
4:30 AM 50.0 °F - 50.0 °F 100% 30.18 in 2.5 mi Calm Calm - N/A   Overcast
5:00 AM 50.0 °F - 50.0 °F 100% 30.18 in 3.1 mi Calm Calm - N/A   Overcast
5:30 AM 50.0 °F - 50.0 °F 100% 30.21 in 3.7 mi North 3.5 mph - N/A   Mostly Cloudy
6:00 AM 51 °F - 50 °F 97% 30.26 in - North 5.8 mph - -   Overcast
6:00 AM 50.0 °F - 50.0 °F 100% 30.21 in 4.3 mi North 5.8 mph - N/A   Overcast
6:30 AM 50.0 °F - 48.2 °F 94% 30.21 in 4.3 mi NE 4.6 mph - N/A   Mostly Cloudy
7:00 AM 48 °F - 48 °F 99% 30.27 in - North 8.9 mph - -  
7:00 AM 48.2 °F - 48.2 °F 100% 30.21 in 4.3 mi North 4.6 mph - N/A   Overcast
7:18 AM 48.2 °F - 48.2 °F 100% 30.21 in 4.3 mi NNW 2.3 mph - N/A   Overcast
7:30 AM 48.2 °F - 48.2 °F 100% 30.24 in 4.3 mi SSE 1.2 mph - N/A   Mostly Cloudy
8:00 AM 50.0 °F - 50.0 °F 100% 30.24 in 4.3 mi Calm Calm - N/A   Mostly Cloudy
8:30 AM 51.8 °F - 51.8 °F 100% 30.24 in 4.3 mi NE 3.5 mph - N/A   Mostly Cloudy
9:00 AM 52 °F - 51 °F 97% 30.30 in - NNE 4.6 mph - -  
9:00 AM 51.8 °F - 51.8 °F 100% 30.24 in 5.0 mi NNE 4.6 mph - N/A   Mostly Cloudy
9:30 AM 53.6 °F - 51.8 °F 94% 30.24 in 5.6 mi East 3.5 mph - N/A   Mostly Cloudy
10:00 AM 53 °F - 51 °F 91% 30.30 in - North 8.9 mph - -  
10:00 AM 53.6 °F - 51.8 °F 94% 30.24 in 5.6 mi North 4.6 mph - N/A   Mostly Cloudy
10:30 AM 53.6 °F - 51.8 °F 94% 30.24 in 5.6 mi North 6.9 mph - N/A Rain Light Rain Showers
11:00 AM 55.4 °F - 53.6 °F 94% 30.24 in 6.2 mi North 5.8 mph - N/A   Mostly Cloudy
11:30 AM 57.2 °F - 51.8 °F 82% 30.24 in 6.2 mi West 4.6 mph - N/A   Mostly Cloudy
12:00 PM 56 °F - 52 °F 82% 30.27 in - SSW 11.2 mph - -   Overcast
12:00 PM 55.4 °F - 51.8 °F 88% 30.21 in 6.2 mi SSW 5.8 mph - N/A   Mostly Cloudy
12:30 PM 57.2 °F - 51.8 °F 82% 30.21 in 6.2 mi North 5.8 mph - N/A   Mostly Cloudy
1:00 PM 57 °F - 51 °F 73% 30.24 in - NW 11.2 mph - -  
1:00 PM 57.2 °F - 50.0 °F 77% 30.18 in 6.2 mi NW 5.8 mph - N/A   Mostly Cloudy
1:30 PM 57.2 °F - 51.8 °F 82% 30.18 in 6.2 mi NNW 8.1 mph - N/A Rain Light Rain Showers
2:00 PM 57.2 °F - 50.0 °F 77% 30.18 in 6.2 mi NNW 10.4 mph - N/A Rain Light Rain Showers
2:30 PM 55.4 °F - 53.6 °F 94% 30.18 in 6.2 mi North 9.2 mph - N/A   Mostly Cloudy
3:00 PM 55 °F - 52 °F 87% 30.25 in - North 15.7 mph - -   Overcast
3:00 PM 55.4 °F - 51.8 °F 88% 30.18 in 6.2 mi North 8.1 mph - N/A Rain Light Rain Showers
3:30 PM 55.4 °F - 51.8 °F 88% 30.18 in 6.2 mi NNW 6.9 mph - N/A   Mostly Cloudy
4:00 PM 55 °F - 52 °F 86% 30.24 in - North 8.1 mph - -  
4:00 PM 55.4 °F - 51.8 °F 88% 30.18 in 6.2 mi North 8.1 mph - N/A   Mostly Cloudy
4:25 PM 55.4 °F - 51.8 °F 88% 30.18 in 6.2 mi NNW 5.8 mph - N/A Rain Light Rain Showers
4:30 PM 55.4 °F - 51.8 °F 88% 30.18 in 6.2 mi North 5.8 mph - N/A Rain Light Rain Showers
5:00 PM 53.6 °F - 51.8 °F 94% 30.18 in 6.2 mi North 5.8 mph - N/A   Mostly Cloudy
5:13 PM 53.6 °F - 51.8 °F 94% 30.18 in 6.2 mi North 5.8 mph - N/A Rain Light Rain Showers
5:30 PM 53.6 °F - 51.8 °F 94% 30.18 in 6.2 mi NNE 5.8 mph - N/A   Mostly Cloudy
6:00 PM 53 °F - 51 °F 90% 30.25 in - NE 11.2 mph - -   Overcast
6:00 PM 53.6 °F - 51.8 °F 94% 30.21 in 6.2 mi NNE 5.8 mph - N/A   Mostly Cloudy
6:30 PM 51.8 °F - 50.0 °F 94% 30.21 in 6.2 mi NE 4.6 mph - N/A   Mostly Cloudy
7:00 PM 51 °F - 50 °F 96% 30.27 in - NNE 11.2 mph - -  
7:00 PM 51.8 °F - 50.0 °F 94% 30.21 in 6.2 mi NNE 5.8 mph - N/A   Mostly Cloudy
7:30 PM 48.2 °F - 48.2 °F 100% 30.21 in 6.2 mi ENE 5.8 mph - N/A   Mostly Cloudy
7:47 PM 51.8 °F - 51.8 °F 100% 30.21 in 6.2 mi North 9.2 mph - N/A   Mostly Cloudy
8:00 PM 50.0 °F - 50.0 °F 100% 30.21 in 6.2 mi North 6.9 mph - N/A   Mostly Cloudy
8:30 PM 46.4 °F 44.3 °F 46.4 °F 100% 30.21 in 6.2 mi East 4.6 mph - N/A   Scattered Clouds
8:42 PM 48.2 °F - 48.2 °F 100% 30.21 in 3.1 mi East 3.5 mph - N/A   Scattered Clouds
8:45 PM 46.4 °F 45.2 °F 46.4 °F 100% 30.21 in 6.2 mi East 3.5 mph - N/A Fog Shallow Fog
9:00 PM 45 °F - 45 °F 98% 30.27 in 1 mi ESE 5.8 mph - -  
9:00 PM 44.6 °F 41.4 °F 44.6 °F 100% 30.21 in 1.2 mi ESE 5.8 mph - N/A   Scattered Clouds
9:14 PM 46.4 °F 44.3 °F 46.4 °F 100% 30.21 in 6.2 mi ESE 4.6 mph - N/A   Mostly Cloudy
9:30 PM 48.2 °F - 48.2 °F 100% 30.21 in 6.2 mi ESE 1.2 mph - N/A   Overcast
9:55 PM 46.4 °F 43.5 °F 46.4 °F 100% 30.21 in 3.7 mi South 5.8 mph - N/A   Overcast
10:00 PM 47 °F - 47 °F 100% 30.27 in - South 5.8 mph - -  
10:00 PM 48.2 °F - 46.4 °F 93% 30.21 in - South 5.8 mph - N/A   Overcast
10:12 PM 46.4 °F - 46.4 °F 100% 30.21 in 0.6 mi SSE 2.3 mph - N/A   Overcast
10:17 PM 46.4 °F - 46.4 °F 100% 30.21 in 0.6 mi SSE 2.3 mph - N/A   Overcast
10:30 PM 46.4 °F 45.2 °F 46.4 °F 100% 30.21 in 3.7 mi South 3.5 mph - N/A   Mostly Cloudy
10:37 PM 46.4 °F 45.2 °F 46.4 °F 100% 30.21 in 0.6 mi SSW 3.5 mph - N/A   Mostly Cloudy
10:50 PM 46.4 °F - 46.4 °F 100% 30.21 in 0.6 mi Calm Calm - N/A   Mostly Cloudy
11:00 PM 46.4 °F - 46.4 °F 100% 30.21 in 1.1 mi SSE 2.3 mph - N/A   Overcast
11:25 PM 46.4 °F - 46.4 °F 100% 30.21 in - ESE 2.3 mph - N/A   Overcast
11:30 PM 46.4 °F - 46.4 °F 100% 30.21 in 6.2 mi ESE 1.2 mph - N/A   Overcast
11:37 PM 46.4 °F - 46.4 °F 100% 30.21 in 6.2 mi Calm Calm - N/A   Overcast